User: anonymous   Login
Location: Chervonnoye
(48.6000°N, 34.4000°E)
Time: 07:29:43
(UTC+00:00)
Language:

RS-44 - Orbit

View from above orbital plane
View from above orbital plane
View from above satellite
View from above satellite

Ground track
Ground track

The orbit data is extracted from the following two-line orbital elements,

1 44909U 19096E   24106.80126767  .00000016  00000-0  18258-4 0  9996
2 44909  82.5200 146.2316 0217222 196.7813 162.6024 12.79728488201043
Epoch (UTC): 15 April 2024 19:13:49
Eccentricity: 0.0217222
inclination: 82.5200°
perigee height: 1175 km
apogee height: 1510 km
right ascension of ascending node: 146.2316°
argument of perigee: 196.7813°
revolutions per day: 12.79728488
mean anomaly at epoch: 162.6024°
orbit number at epoch: 20104

The dashed part of the orbit path shows where the satellite is in the earth's shadow,  

DLR